Simultaneous Nadir Overpasses (SNOs) Predictions

Prediction of SNOs between METOP-A and NOAA-19 Satellite Orbit:

Table of predicted SNOs for the next 14.0 days since TLE Epoch: 10/7/2016
Index Date (METOP-A) Time (METOP-A) Lat,Lon (METOP-A) SZA (METOP-A ) Date (NOAA-19) Time (NOAA-19) Lat,Lon (NOAA-19) SZA (NOAA-19 ) Distance(km) Time Diff (sec)
1 10/15/2016 20:13:09 76.54,-121.41 85.43 10/15/2016 20:12:01 76.52,-121.49 85.40 3.08 68
2 10/15/2016 21:03:51 -76.51, 45.81 94.60 10/15/2016 21:02:59 -76.50, 45.85 94.61 1.52 52
3 10/15/2016 21:54:32 76.47,-146.98 85.39 10/15/2016 21:54:02 76.48,-146.84 85.39 3.64 30
4 10/15/2016 22:45:13 -76.49, 20.40 94.59 10/15/2016 22:45:01 -76.50, 20.32 94.58 2.48 12
5 10/15/2016 23:35:54 76.45,-172.39 85.39 10/15/2016 23:36:04 76.48,-172.37 85.42 3.20 10
6 10/16/2016 00:26:35 -76.47, -5.01 94.59 10/16/2016 00:27:02 -76.46, -5.03 94.59 0.88 27
7 10/16/2016 01:17:16 76.44, 162.20 85.40 10/16/2016 01:18:05 76.44, 162.28 85.41 2.25 49
8 10/16/2016 02:07:57 -76.45, -30.42 94.58 10/16/2016 02:09:03 -76.42, -30.38 94.60 3.08 66




NCC Satellite Simultaneous Nadir Overpasses (SNOs) Prediction Service
